Regional Weather Roundup
Issued by NWS Upton, NY

Current Version | Previous Version | Text Only | Print | Product List | Glossary Off
Versions: 1 2 3 4 5 6 7 8 9 10 11 12 13 14 15 16 17 18 19 20 21 22 23 24 25 26 27
000 ASUS41 KOKX 250104 RWROKX REGIONAL WEATHER ROUNDUP NATIONAL WEATHER SERVICE NEW YORK NY 900 PM EDT TUE MAY 24 2016 NOTE: "FAIR" INDICATES FEW OR NO CLOUDS BELOW 12,000 FEET WITH NO SIGNIFICANT WEATHER AND/OR OBSTRUCTIONS TO VISIBILITY. NYZ071-072-176-178-NJZ106-104-250200- NEW YORK CITY METRO AREA CITY SKY/WX TMP DP RH WIND PRES REMARKS CENTRAL PARK CLOUDY 69 49 48 CALM 29.99R LAGUARDIA APRT CLOUDY 67 57 70 NE6 29.95R KENNEDY INTL CLOUDY 70 50 49 CALM 29.97R NEWARK/LIBERTY CLOUDY 70 50 49 N6 29.96R BRNX BOT. GARD N/A 64 52 63 CALM 29.97R TETERBORO CLOUDY 70 50 49 N5 29.95R $$ NYZ177-179-078>081-250200- LONG ISLAND NEW YORK CITY SKY/WX TMP DP RH WIND PRES REMARKS FARMINGDALE CLOUDY 64 58 80 SE5 29.96R ISLIP LGT RAIN 63 60 90 CALM 29.96R SHIRLEY CLOUDY 61 59 93 CALM 29.98R RIVERHEAD N/A 57 57 100 CALM 29.96R WESTHAMPTON FOG 54 32 43 CALM 29.98R VSB 3/4 EAST HAMPTON CLOUDY 59 57 94 CALM 29.95R MONTAUK POINT N/A 58 58 100 CALM 29.97R $$ NYZ052-065-067-250200- HUDSON VALLEY CITY SKY/WX TMP DP RH WIND PRES REMARKS WHITE PLAINS CLOUDY 61 58 90 CALM 29.96R NEWBURGH PTCLDY 64 55 72 VRB6 29.97S MONTGOMERY CLOUDY 61 55 81 CALM 29.97R POUGHKEEPSIE CLOUDY 63 59 87 CALM 29.95R ALBANY CLOUDY 61 55 81 E5 29.96R $$ NJZ001-105-106-008-010-013-015-019>022-104-250200- NEW JERSEY CITY SKY/WX TMP DP RH WIND PRES REMARKS NEWARK/LIBERTY CLOUDY 70 50 49 N6 29.96R TETERBORO CLOUDY 70 50 49 N5 29.95R CALDWELL CLOUDY 65 55 70 CALM 29.97R MORRISTOWN PTCLDY 64 57 77 CALM 29.97R SOMERVILLE PTCLDY 64 55 72 CALM 29.95R SUSSEX CLOUDY 62 54 74 CALM 29.98R ANDOVER N/A 61 53 75 CALM 29.98R TRENTON MOCLDY 67 53 61 E5 29.95R MILLVILLE PTCLDY 72 52 49 SW6 29.96R ATLANTIC CITY CLOUDY 72 53 51 SW8 29.94S WRIGHTSTOWN NOT AVBL TOMS RIVER CLOUDY 64 55 72 CALM 29.96R BELMAR CLOUDY 66 55 67 E3 29.97R $$ PAZ047>061-062-071-250200- EASTERN PENNSYLVANIA CITY SKY/WX TMP DP RH WIND PRES REMARKS PHILADELPHIA CLOUDY 78 47 33 W9 29.94R ALLENTOWN CLEAR 65 54 67 E7 29.95R SCRANTON CLEAR 65 45 48 CALM 29.96R $$ CTZ002-004>006-009-010-012-RIZ004-006-007-MAZ004-011-015-250200- SOUTHERN NEW ENGLAND IN CT CITY SKY/WX TMP DP RH WIND PRES REMARKS BRADLEY INTL PTCLDY 60 56 86 CALM 29.94R HARTFORD PTCLDY 62 56 80 CALM 29.95R DANBURY LGT RAIN 61 58 90 CALM 29.97S WTRBRY/OXFORD MOCLDY 57 54 88 CALM 29.99R FOG BRIDGEPORT MOCLDY 61 58 90 SE3 29.94R MERIDEN MOCLDY 62 57 83 W3 29.96R NEW HAVEN PTCLDY 58 56 93 CALM 29.95R CHESTER MOCLDY 61 59 94 CALM 29.95S GROTON MOCLDY 57 57 100 CALM 29.95R WILLIMANTIC CLEAR 60 55 83 CALM 29.96R IN RI CITY SKY/WX TMP DP RH WIND PRES REMARKS PROVIDENCE CLOUDY 56 53 90 NE6 29.96R BLOCK ISLAND FOG 55 55 100 W3 29.96R VSB 1/2 WESTERLY PTCLDY 58 54 86 SW3 29.96R IN MA CITY SKY/WX TMP DP RH WIND PRES REMARKS BOSTON CLOUDY 53 50 89 N10 29.96R WORCESTER CLOUDY 56 54 93 N3 29.96R WESTFIELD LGT RAIN 60 57 89 CALM 29.95R PROVINCETOWN CLOUDY 53 51 93 E6 29.94S NANTUCKET CLOUDY 55 53 93 SW16 29.91R FOG $$ ANZ330-335-338-340-345-350-353-355-250200- COASTAL MARINE OBSERVATIONS STATION/POSITION TIME SKY/WX TEMP WIND PRES VSBY WAVE AIR SEA DIR/SP/G HT/PER (UTC) (F) (DEG/KT/KT) (MB) (MI) (FT/S) NY HARB ENTRANCE 2350 61 59 210/ 6/ 8 1013.5 2/ 8 20S FIRE ISLAND 2350 59 54 230/ 4/ 4 1013.7 3/ 8 GREAT SOUTH BAY 0000 63 64 230/ 2/ 2 N/A 23 SSW MONTAUK P 0050 56 55 250/ 8/ 10 1014.2 3/ 8 15 E BARNEGAT LI 0022 56 N/A 3/ 9 HUDSON CANYON 2350 56 54 1013.7 3/ 8 KINGS POINT 0000 66 1013.7 EXECUTION ROCKS NOT AVBL CENTRAL LI SOUND 0000 58 300/ 2/ 4 N/A 0 EASTERN LI SOUND 0000 55 52 250/ 4/ 6 N/A ROBBINS REEF 0000 71 1013.0 $$ >>>>>>>>>>>>>>>>>>>>>>>>>>>> KEY <<<<<<<<<<<<<<<<<<<<<<<<<<< > < > SKY/WX - SKY CONDITION/PRESENT WEATHER < > TMP - TEMPERATURE IN FAHRENHEIT < > DP - DEWPOINT IN FAHRENHEIT < > RH - RELATIVE HUMIDITY IN PERCENT < > WIND - DIRECTION AND SPEED IN MPH < > PRES - MEAN SEA LEVEL PRESSURE IN INCHES OF HG < > WCI - WIND CHILL INDEX < > VSB - VISIBILITY IN MILES < > HX - HEAT INDEX < > TC - TEMPERATURE IN CELSIUS < > VRB - VARIABLE WIND DIRECTION < > < >>>>>>>>>>>>>>>>>>>>>>>>>>>> KEY <<<<<<<<<<<<<<<<<<<<<<<<<<<

USA.gov is the U.S. government's official web portal to all federal, state and local government web resources and services.